Location: Miles
(41.4492°N, 81.6087°W)
Time: 16:03:44
(UTC+00:00)

A-11 Canister half - Pass Details

Date: 16 September 2024
Orbit: 1515 x 1684 km, 47.2° (Epoch: 11 October)

Event Time Altitude Azimuth Distance (km) Brightness Sun altitude
Rises 02:23:22 0° 273° (W) 4,700 12.3 -30.4°
Reaches altitude 10° 02:26:30 10° 276° (W) 3,702 11.7 -30.8°
Maximum altitude 02:35:42 62° 357° (N) 1,682 9.2 -32.2°
Enters shadow 02:39:18 39° 59° (ENE) 2,120 9.5 -32.7°
